Time,TemperatureF,DewpointF,PressureIn,WindDirection,WindDirectionDegrees,WindSpeedMPH,WindSpeedGustMPH,Humidity,HourlyPrecipIn,Conditions,Clouds,dailyrainin,SoftwareType,DateUTC
2013-10-09 00:03:00,59.5,48.2,29.95,South,191,7.0,12.0,66,0.00,,SCT250,0.00,VWS V14.01,2013-10-09 05:03:00,
2013-10-09 00:08:00,60.0,48.2,29.95,South,183,8.0,11.0,65,0.00,,SCT250,0.00,VWS V14.01,2013-10-09 05:08:00,
2013-10-09 00:13:00,60.3,48.1,29.95,South,184,8.0,12.0,64,0.00,,SCT250,0.00,VWS V14.01,2013-10-09 05:13:00,
2013-10-09 00:18:00,60.5,48.3,29.95,SSW,192,7.0,8.0,64,0.00,,SCT250,0.00,VWS V14.01,2013-10-09 05:18:00,
2013-10-09 00:23:00,60.5,48.3,29.95,SSE,158,10.0,12.0,64,0.00,,SCT250,0.00,VWS V14.01,2013-10-09 05:23:00,
2013-10-09 00:28:00,60.6,48.4,29.95,South,181,10.0,12.0,64,0.00,,SCT250,0.00,VWS V14.01,2013-10-09 05:28:00,
2013-10-09 00:33:00,60.4,48.2,29.95,South,183,8.0,11.0,64,0.00,,SCT250,0.00,VWS V14.01,2013-10-09 05:33:00,
2013-10-09 00:38:00,60.5,48.3,29.95,South,185,8.0,13.0,64,0.00,,SCT250,0.00,VWS V14.01,2013-10-09 05:38:00,
2013-10-09 00:43:00,60.4,48.2,29.95,South,184,11.0,11.0,64,0.00,,BKN250,0.00,VWS V14.01,2013-10-09 05:43:00,
2013-10-09 00:48:00,60.2,48.4,29.96,South,185,10.0,13.0,65,0.00,,BKN250,0.00,VWS V14.01,2013-10-09 05:48:00,
2013-10-09 00:53:00,59.9,48.1,29.95,SSW,195,7.0,11.0,65,0.00,,BKN250,0.00,VWS V14.01,2013-10-09 05:53:00,
2013-10-09 00:58:00,59.7,48.3,29.96,SSW,194,8.0,12.0,66,0.00,,BKN250,0.00,VWS V14.01,2013-10-09 05:58:00,
2013-10-09 01:03:00,59.4,48.0,29.96,SSE,155,7.0,10.0,66,0.00,,BKN250,0.00,VWS V14.01,2013-10-09 06:03:00,
2013-10-09 01:08:00,59.1,48.2,29.96,South,188,6.0,10.0,67,0.00,,BKN250,0.00,VWS V14.01,2013-10-09 06:08:00,
2013-10-09 01:13:00,58.9,48.4,29.96,South,189,8.0,10.0,68,0.00,,BKN250,0.00,VWS V14.01,2013-10-09 06:13:00,
2013-10-09 01:18:00,58.7,48.2,29.96,SSE,166,6.0,9.0,68,0.00,,BKN250,0.00,VWS V14.01,2013-10-09 06:18:00,
2013-10-09 01:23:00,58.4,48.3,29.96,South,174,6.0,7.0,69,0.00,,BKN250,0.00,VWS V14.01,2013-10-09 06:23:00,
2013-10-09 01:28:00,58.1,48.0,29.96,South,181,6.0,8.0,69,0.00,,BKN250,0.00,VWS V14.01,2013-10-09 06:28:00,
2013-10-09 01:33:00,57.9,48.2,29.96,South,180,5.0,7.0,70,0.00,,BKN250,0.00,VWS V14.01,2013-10-09 06:33:00,
2013-10-09 01:38:00,57.7,48.0,29.96,South,175,6.0,7.0,70,0.00,,BKN250,0.00,VWS V14.01,2013-10-09 06:38:00,
2013-10-09 01:43:00,57.4,48.1,29.96,South,186,4.0,6.0,71,0.00,,BKN250,0.00,VWS V14.01,2013-10-09 06:43:00,
2013-10-09 01:48:00,57.2,47.9,29.96,South,174,4.0,4.0,71,0.00,,BKN250,0.00,VWS V14.01,2013-10-09 06:48:00,
2013-10-09 01:53:00,56.8,47.9,29.97,South,171,3.0,8.0,72,0.00,,BKN250,0.00,VWS V14.01,2013-10-09 06:53:00,
2013-10-09 01:58:00,56.5,48.0,29.97,SSE,152,2.0,3.0,73,0.00,,BKN250,0.00,VWS V14.01,2013-10-09 06:58:00,
2013-10-09 02:03:00,56.2,48.0,29.97,South,183,3.0,5.0,74,0.00,,BKN250,0.00,VWS V14.01,2013-10-09 07:03:00,
2013-10-09 02:08:00,56.0,48.2,29.97,South,169,3.0,4.0,75,0.00,,BKN250,0.00,VWS V14.01,2013-10-09 07:08:00,
2013-10-09 02:13:00,55.7,47.9,29.97,South,169,3.0,4.0,75,0.00,,BKN250,0.00,VWS V14.01,2013-10-09 07:13:00,
2013-10-09 02:18:00,55.5,48.1,29.97,SSE,166,3.0,5.0,76,0.00,,BKN250,0.00,VWS V14.01,2013-10-09 07:18:00,
2013-10-09 02:23:00,55.3,47.9,29.97,SSE,159,4.0,5.0,76,0.00,,BKN250,0.00,VWS V14.01,2013-10-09 07:23:00,
2013-10-09 02:29:00,55.1,48.0,29.97,SSE,158,2.0,3.0,77,0.00,,BKN250,0.00,VWS V14.01,2013-10-09 07:29:00,
2013-10-09 02:34:00,54.9,48.2,29.97,SSE,160,2.0,4.0,78,0.00,,BKN250,0.00,VWS V14.01,2013-10-09 07:34:00,
2013-10-09 02:39:00,54.6,48.2,29.97,SSE,168,4.0,4.0,79,0.00,,BKN250,0.00,VWS V14.01,2013-10-09 07:39:00,
2013-10-09 02:44:00,54.4,48.0,29.97,SSE,165,4.0,4.0,79,0.00,,SCT250,0.00,VWS V14.01,2013-10-09 07:44:00,
2013-10-09 02:49:00,54.2,48.2,29.97,South,172,3.0,4.0,80,0.00,,SCT250,0.00,VWS V14.01,2013-10-09 07:49:00,
2013-10-09 02:54:00,54.0,48.0,29.97,SSE,162,1.0,4.0,80,0.00,,SCT250,0.00,VWS V14.01,2013-10-09 07:54:00,
2013-10-09 02:59:00,53.9,48.2,29.97,South,179,1.0,4.0,81,0.00,,SCT250,0.00,VWS V14.01,2013-10-09 07:59:00,
2013-10-09 03:04:00,53.8,48.1,29.97,South,180,2.0,4.0,81,0.00,,SCT250,0.00,VWS V14.01,2013-10-09 08:04:00,
2013-10-09 03:09:00,53.7,48.0,29.97,South,180,2.0,4.0,81,0.00,,SCT250,0.00,VWS V14.01,2013-10-09 08:09:00,
2013-10-09 03:14:00,53.6,47.9,29.97,South,175,4.0,5.0,81,0.00,,SCT250,0.00,VWS V14.01,2013-10-09 08:14:00,
2013-10-09 03:19:00,53.6,47.9,29.97,South,177,5.0,5.0,81,0.00,,SCT250,0.00,VWS V14.01,2013-10-09 08:19:00,
2013-10-09 03:24:00,53.5,47.8,29.96,South,177,4.0,4.0,81,0.00,,SCT250,0.00,VWS V14.01,2013-10-09 08:24:00,
2013-10-09 03:29:00,53.4,48.0,29.96,South,177,3.0,4.0,82,0.00,,SCT250,0.00,VWS V14.01,2013-10-09 08:29:00,
2013-10-09 03:34:00,53.2,47.9,29.97,South,178,4.0,4.0,82,0.00,,SCT250,0.00,VWS V14.01,2013-10-09 08:34:00,
2013-10-09 03:39:00,53.0,47.7,29.97,South,178,3.0,4.0,82,0.00,,SCT250,0.00,VWS V14.01,2013-10-09 08:39:00,
2013-10-09 03:44:00,52.8,47.8,29.96,South,176,3.0,3.0,83,0.00,,BKN250,0.00,VWS V14.01,2013-10-09 08:44:00,
2013-10-09 03:49:00,52.6,47.9,29.96,South,176,3.0,3.0,84,0.00,,BKN250,0.00,VWS V14.01,2013-10-09 08:49:00,
2013-10-09 03:54:00,52.5,47.8,29.96,South,176,3.0,4.0,84,0.00,,BKN250,0.00,VWS V14.01,2013-10-09 08:54:00,
2013-10-09 03:59:00,52.4,47.7,29.96,SSE,166,3.0,5.0,84,0.00,,BKN250,0.00,VWS V14.01,2013-10-09 08:59:00,
2013-10-09 04:04:00,52.4,47.7,29.96,South,172,3.0,4.0,84,0.00,,BKN250,0.00,VWS V14.01,2013-10-09 09:04:00,
2013-10-09 04:09:00,52.3,47.9,29.96,South,172,3.0,4.0,85,0.00,,BKN250,0.00,VWS V14.01,2013-10-09 09:09:00,
2013-10-09 04:14:00,52.3,47.9,29.97,South,170,3.0,4.0,85,0.00,,BKN250,0.00,VWS V14.01,2013-10-09 09:14:00,
2013-10-09 04:19:00,52.3,47.9,29.96,South,177,5.0,5.0,85,0.00,,BKN250,0.00,VWS V14.01,2013-10-09 09:19:00,
2013-10-09 04:24:00,52.3,47.6,29.96,South,184,5.0,5.0,84,0.00,,BKN250,0.00,VWS V14.01,2013-10-09 09:24:00,
2013-10-09 04:29:00,52.3,47.6,29.96,South,174,3.0,5.0,84,0.00,,BKN250,0.00,VWS V14.01,2013-10-09 09:29:00,
2013-10-09 04:34:00,52.2,47.5,29.96,SSE,163,3.0,6.0,84,0.00,,BKN250,0.00,VWS V14.01,2013-10-09 09:34:00,
2013-10-09 04:39:00,52.2,47.5,29.96,South,174,3.0,5.0,84,0.00,,BKN250,0.00,VWS V14.01,2013-10-09 09:39:00,
2013-10-09 04:44:00,52.1,47.7,29.96,South,179,4.0,5.0,85,0.00,,BKN250,0.00,VWS V14.01,2013-10-09 09:44:00,
2013-10-09 04:49:00,52.2,47.5,29.97,South,181,4.0,5.0,84,0.00,,BKN250,0.00,VWS V14.01,2013-10-09 09:49:00,
2013-10-09 04:54:00,52.2,47.5,29.97,South,180,4.0,4.0,84,0.00,,BKN250,0.00,VWS V14.01,2013-10-09 09:54:00,
2013-10-09 04:59:00,52.2,47.5,29.97,South,172,3.0,5.0,84,0.00,,BKN250,0.00,VWS V14.01,2013-10-09 09:59:00,
2013-10-09 05:04:00,52.1,47.4,29.97,South,174,4.0,5.0,84,0.00,,BKN250,0.00,VWS V14.01,2013-10-09 10:04:00,
2013-10-09 05:09:00,52.1,47.4,29.97,South,175,4.0,5.0,84,0.00,,BKN250,0.00,VWS V14.01,2013-10-09 10:09:00,
2013-10-09 05:14:00,52.0,47.3,29.97,South,172,4.0,5.0,84,0.00,,BKN250,0.00,VWS V14.01,2013-10-09 10:14:00,
2013-10-09 05:19:00,51.9,47.5,29.97,South,170,4.0,4.0,85,0.00,,BKN250,0.00,VWS V14.01,2013-10-09 10:19:00,
2013-10-09 05:24:00,51.6,47.2,29.97,South,177,4.0,5.0,85,0.00,,BKN250,0.00,VWS V14.01,2013-10-09 10:24:00,
2013-10-09 05:29:00,51.3,47.3,29.97,SSE,163,4.0,4.0,86,0.00,,BKN250,0.00,VWS V14.01,2013-10-09 10:29:00,
2013-10-09 05:35:00,51.0,47.0,29.97,SSE,166,3.0,4.0,86,0.00,,BKN250,0.00,VWS V14.01,2013-10-09 10:35:00,
2013-10-09 05:40:00,50.9,46.9,29.97,SSE,166,2.0,3.0,86,0.00,,BKN250,0.00,VWS V14.01,2013-10-09 10:40:00,
2013-10-09 05:45:00,50.8,47.1,29.97,SSE,166,2.0,3.0,87,0.00,,SCT250,0.00,VWS V14.01,2013-10-09 10:45:00,
2013-10-09 05:50:00,50.7,47.0,29.97,South,172,3.0,6.0,87,0.00,,SCT250,0.00,VWS V14.01,2013-10-09 10:50:00,
2013-10-09 05:55:00,50.7,47.3,29.97,South,174,2.0,4.0,88,0.00,,SCT250,0.00,VWS V14.01,2013-10-09 10:55:00,
2013-10-09 06:00:00,50.7,47.3,29.97,South,179,2.0,4.0,88,0.00,,SCT250,0.00,VWS V14.01,2013-10-09 11:00:00,
2013-10-09 06:05:00,50.6,47.2,29.97,South,174,3.0,4.0,88,0.00,,SCT250,0.00,VWS V14.01,2013-10-09 11:05:00,
2013-10-09 06:10:00,50.5,47.1,29.97,South,171,4.0,5.0,88,0.00,,SCT250,0.00,VWS V14.01,2013-10-09 11:10:00,
2013-10-09 06:15:00,50.5,47.1,29.97,South,178,6.0,6.0,88,0.00,,SCT250,0.00,VWS V14.01,2013-10-09 11:15:00,
2013-10-09 06:20:00,50.4,47.0,29.97,South,174,4.0,4.0,88,0.00,,SCT250,0.00,VWS V14.01,2013-10-09 11:20:00,
2013-10-09 06:25:00,50.4,47.0,29.97,South,171,3.0,5.0,88,0.00,,SCT250,0.00,VWS V14.01,2013-10-09 11:25:00,
2013-10-09 06:30:00,50.4,47.0,29.97,South,171,3.0,5.0,88,0.00,,SCT250,0.00,VWS V14.01,2013-10-09 11:30:00,
2013-10-09 06:35:00,50.4,47.0,29.97,South,187,5.0,5.0,88,0.00,,SCT250,0.00,VWS V14.01,2013-10-09 11:35:00,
2013-10-09 06:40:00,50.5,47.1,29.97,South,180,4.0,5.0,88,0.00,,SCT250,0.00,VWS V14.01,2013-10-09 11:40:00,
2013-10-09 06:45:00,50.6,47.2,29.97,South,182,5.0,5.0,88,0.00,,SCT250,0.00,VWS V14.01,2013-10-09 11:45:00,
2013-10-09 06:50:00,50.8,47.4,29.98,South,174,4.0,6.0,88,0.00,,SCT250,0.00,VWS V14.01,2013-10-09 11:50:00,
2013-10-09 06:55:00,50.9,47.2,29.98,South,183,3.0,6.0,87,0.00,,SCT250,0.00,VWS V14.01,2013-10-09 11:55:00,
2013-10-09 07:00:00,50.9,47.2,29.98,South,175,3.0,4.0,87,0.00,,SCT250,0.00,VWS V14.01,2013-10-09 12:00:00,
2013-10-09 07:05:00,50.9,47.2,29.98,South,181,3.0,4.0,87,0.00,,SCT250,0.00,VWS V14.01,2013-10-09 12:05:00,
2013-10-09 07:10:00,50.9,47.2,29.98,South,182,2.0,5.0,87,0.00,,SCT250,0.00,VWS V14.01,2013-10-09 12:10:00,
2013-10-09 07:15:00,50.9,47.2,29.97,South,174,3.0,4.0,87,0.00,,SCT250,0.00,VWS V14.01,2013-10-09 12:15:00,
2013-10-09 07:20:00,50.9,47.2,29.98,South,172,3.0,4.0,87,0.00,,SCT250,0.00,VWS V14.01,2013-10-09 12:20:00,
2013-10-09 07:25:00,50.8,47.1,29.98,South,183,3.0,3.0,87,0.00,,SCT250,0.00,VWS V14.01,2013-10-09 12:25:00,
2013-10-09 07:30:00,50.9,47.2,29.98,South,184,4.0,4.0,87,0.00,,SCT250,0.00,VWS V14.01,2013-10-09 12:30:00,
2013-10-09 07:35:00,51.0,47.3,29.98,SSE,162,6.0,6.0,87,0.00,,SCT250,0.00,VWS V14.01,2013-10-09 12:35:00,
2013-10-09 07:40:00,51.3,47.6,29.98,South,177,4.0,6.0,87,0.00,,SCT250,0.00,VWS V14.01,2013-10-09 12:40:00,
2013-10-09 07:45:00,51.5,47.5,29.98,South,176,3.0,6.0,86,0.00,,SCT250,0.00,VWS V14.01,2013-10-09 12:45:00,
2013-10-09 07:50:00,51.8,47.8,29.98,SSE,167,3.0,6.0,86,0.00,,SCT250,0.00,VWS V14.01,2013-10-09 12:50:00,
2013-10-09 07:55:00,52.0,48.0,29.98,SSE,168,4.0,4.0,86,0.00,,SCT250,0.00,VWS V14.01,2013-10-09 12:55:00,
2013-10-09 08:00:00,52.4,48.3,29.98,SSE,162,2.0,5.0,86,0.00,,SCT250,0.00,VWS V14.01,2013-10-09 13:00:00,
2013-10-09 08:05:00,52.6,48.2,29.98,SE,143,4.0,5.0,85,0.00,,SCT250,0.00,VWS V14.01,2013-10-09 13:05:00,
2013-10-09 08:10:00,52.8,48.4,29.99,South,177,3.0,5.0,85,0.00,,SCT250,0.00,VWS V14.01,2013-10-09 13:10:00,
2013-10-09 08:15:00,52.9,48.5,29.99,SSE,162,3.0,4.0,85,0.00,,SCT250,0.00,VWS V14.01,2013-10-09 13:15:00,
2013-10-09 08:20:00,53.1,48.4,29.99,SSE,165,5.0,6.0,84,0.00,,SCT250,0.00,VWS V14.01,2013-10-09 13:20:00,
2013-10-09 08:25:00,53.2,48.5,29.99,SSE,165,6.0,7.0,84,0.00,,SCT250,0.00,VWS V14.01,2013-10-09 13:25:00,
2013-10-09 08:30:00,53.5,48.5,29.99,SSE,156,4.0,7.0,83,0.00,,SCT250,0.00,VWS V14.01,2013-10-09 13:30:00,
2013-10-09 08:35:00,54.1,49.1,29.99,SSE,152,4.0,5.0,83,0.00,,SCT250,0.00,VWS V14.01,2013-10-09 13:35:00,
2013-10-09 08:40:00,54.6,49.2,29.99,SSE,151,5.0,6.0,82,0.00,,SCT250,0.00,VWS V14.01,2013-10-09 13:40:00,
2013-10-09 08:45:00,54.8,49.1,29.99,SSE,152,7.0,9.0,81,0.00,,SCT250,0.00,VWS V14.01,2013-10-09 13:45:00,
2013-10-09 08:50:00,55.3,49.6,29.99,SSE,167,8.0,9.0,81,0.00,,SCT250,0.00,VWS V14.01,2013-10-09 13:50:00,
2013-10-09 08:55:00,55.8,49.7,30.00,SSE,152,5.0,9.0,80,0.00,,SCT250,0.00,VWS V14.01,2013-10-09 13:55:00,
2013-10-09 09:00:00,56.4,50.3,30.00,SSE,166,6.0,11.0,80,0.00,,SCT250,0.00,VWS V14.01,2013-10-09 14:00:00,
2013-10-09 09:05:00,57.0,49.9,29.99,South,172,7.0,11.0,77,0.00,,SCT250,0.00,VWS V14.01,2013-10-09 14:05:00,
2013-10-09 09:10:00,57.5,50.7,29.99,South,170,4.0,10.0,78,0.00,,SCT250,0.00,VWS V14.01,2013-10-09 14:10:00,
2013-10-09 09:15:00,58.1,50.6,30.00,SSE,152,6.0,12.0,76,0.00,,SCT250,0.00,VWS V14.01,2013-10-09 14:15:00,
2013-10-09 09:20:00,58.5,50.2,30.00,South,181,8.0,12.0,74,0.00,,SCT250,0.00,VWS V14.01,2013-10-09 14:20:00,
2013-10-09 09:25:00,59.0,50.7,30.00,South,186,7.0,11.0,74,0.00,,SCT250,0.00,VWS V14.01,2013-10-09 14:25:00,
2013-10-09 09:30:00,59.0,50.7,30.00,SSE,156,11.0,11.0,74,0.00,,SCT250,0.00,VWS V14.01,2013-10-09 14:30:00,
2013-10-09 09:35:00,59.4,50.8,30.00,SSE,167,9.0,9.0,73,0.00,,SCT250,0.00,VWS V14.01,2013-10-09 14:35:00,
2013-10-09 09:40:00,60.2,51.2,30.00,South,189,13.0,13.0,72,0.00,,SCT250,0.00,VWS V14.01,2013-10-09 14:40:00,
2013-10-09 09:45:00,60.7,50.9,30.00,SSE,160,12.0,13.0,70,0.00,,SCT250,0.00,VWS V14.01,2013-10-09 14:45:00,
2013-10-09 09:50:00,61.3,51.1,30.00,South,184,10.0,13.0,69,0.00,,SCT250,0.00,VWS V14.01,2013-10-09 14:50:00,
2013-10-09 09:55:00,61.5,50.8,30.00,SSW,195,8.0,11.0,68,0.00,,SCT250,0.00,VWS V14.01,2013-10-09 14:55:00,
2013-10-09 10:00:00,61.8,50.7,30.00,South,186,13.0,14.0,67,0.00,,SCT250,0.00,VWS V14.01,2013-10-09 15:00:00,
2013-10-09 10:06:00,62.1,51.0,30.00,South,187,7.0,12.0,67,0.00,,SCT250,0.00,VWS V14.01,2013-10-09 15:06:00,
2013-10-09 10:11:00,62.2,50.3,30.00,SSW,199,11.0,21.0,65,0.00,,SCT250,0.00,VWS V14.01,2013-10-09 15:11:00,
2013-10-09 10:16:00,62.2,51.1,30.00,SSW,196,7.0,12.0,67,0.00,,SCT250,0.00,VWS V14.01,2013-10-09 15:16:00,
2013-10-09 10:21:00,62.6,51.1,30.00,South,182,6.0,14.0,66,0.00,,SCT250,0.00,VWS V14.01,2013-10-09 15:21:00,
2013-10-09 10:26:00,63.0,51.1,30.00,SSW,202,8.0,11.0,65,0.00,,SCT250,0.00,VWS V14.01,2013-10-09 15:26:00,
2013-10-09 10:31:00,63.4,51.0,30.00,SSW,193,7.0,15.0,64,0.00,,SCT250,0.00,VWS V14.01,2013-10-09 15:31:00,
2013-10-09 10:36:00,63.2,50.8,30.00,South,187,12.0,19.0,64,0.00,,SCT250,0.00,VWS V14.01,2013-10-09 15:36:00,
2013-10-09 10:41:00,63.6,51.6,30.00,South,170,13.0,14.0,65,0.00,,SCT250,0.00,VWS V14.01,2013-10-09 15:41:00,
2013-10-09 10:46:00,64.2,51.4,30.00,South,181,10.0,18.0,63,0.00,,SCT250,0.00,VWS V14.01,2013-10-09 15:46:00,
2013-10-09 10:51:00,64.2,51.8,30.00,SSE,160,16.0,17.0,64,0.00,,SCT250,0.00,VWS V14.01,2013-10-09 15:51:00,
2013-10-09 10:56:00,64.6,51.7,30.00,South,187,7.0,13.0,63,0.00,,SCT250,0.00,VWS V14.01,2013-10-09 15:56:00,
2013-10-09 11:01:00,65.1,51.8,30.00,South,189,13.0,13.0,62,0.00,,SCT250,0.00,VWS V14.01,2013-10-09 16:01:00,
2013-10-09 11:06:00,65.2,51.4,30.00,South,187,12.0,17.0,61,0.00,,SCT250,0.00,VWS V14.01,2013-10-09 16:06:00,
2013-10-09 11:11:00,65.6,52.2,30.00,SSE,165,10.0,14.0,62,0.00,,SCT250,0.00,VWS V14.01,2013-10-09 16:11:00,
2013-10-09 11:16:00,66.2,52.4,30.00,South,177,16.0,16.0,61,0.00,,SCT250,0.00,VWS V14.01,2013-10-09 16:16:00,
2013-10-09 11:21:00,66.6,52.3,30.00,South,191,12.0,16.0,60,0.00,,SCT250,0.00,VWS V14.01,2013-10-09 16:21:00,
2013-10-09 11:26:00,67.0,52.7,30.00,SSE,166,13.0,13.0,60,0.00,,SCT250,0.00,VWS V14.01,2013-10-09 16:26:00,
2013-10-09 11:31:00,67.5,52.2,29.99,South,179,10.0,17.0,58,0.00,,SCT250,0.00,VWS V14.01,2013-10-09 16:31:00,
2013-10-09 11:36:00,67.5,52.2,29.99,South,175,12.0,15.0,58,0.00,,SCT250,0.00,VWS V14.01,2013-10-09 16:36:00,
2013-10-09 11:41:00,67.8,52.0,29.99,SSW,197,10.0,14.0,57,0.00,,SCT250,0.00,VWS V14.01,2013-10-09 16:41:00,
2013-10-09 11:46:00,67.8,52.0,29.99,South,177,15.0,18.0,57,0.00,,SCT250,0.00,VWS V14.01,2013-10-09 16:46:00,
2013-10-09 11:51:00,68.0,52.2,29.99,SSW,193,9.0,12.0,57,0.00,,SCT250,0.00,VWS V14.01,2013-10-09 16:51:00,
2013-10-09 11:56:00,68.3,52.5,29.99,South,179,10.0,16.0,57,0.00,,SCT250,0.00,VWS V14.01,2013-10-09 16:56:00,
2013-10-09 12:01:00,68.5,52.2,29.99,South,177,8.0,16.0,56,0.00,,SCT250,0.00,VWS V14.01,2013-10-09 17:01:00,
2013-10-09 12:06:00,69.0,52.2,29.99,SSW,193,7.0,16.0,55,0.00,,SCT250,0.00,VWS V14.01,2013-10-09 17:06:00,
2013-10-09 12:11:00,69.3,52.5,29.99,SE,141,13.0,13.0,55,0.00,,SCT250,0.00,VWS V14.01,2013-10-09 17:11:00,
2013-10-09 12:16:00,69.7,52.8,29.99,South,191,7.0,14.0,55,0.00,,SCT250,0.00,VWS V14.01,2013-10-09 17:16:00,
2013-10-09 12:21:00,69.9,52.5,29.99,SSE,158,12.0,13.0,54,0.00,,SCT250,0.00,VWS V14.01,2013-10-09 17:21:00,
2013-10-09 12:26:00,70.0,52.6,29.99,SSE,167,5.0,12.0,54,0.00,,SCT250,0.00,VWS V14.01,2013-10-09 17:26:00,
2013-10-09 12:31:00,70.5,52.0,29.99,SSE,156,10.0,16.0,52,0.00,,SCT250,0.00,VWS V14.01,2013-10-09 17:31:00,
2013-10-09 12:36:00,71.0,52.5,29.99,South,172,8.0,15.0,52,0.00,,SCT250,0.00,VWS V14.01,2013-10-09 17:36:00,
2013-10-09 12:41:00,71.3,52.3,29.98,South,187,9.0,15.0,51,0.00,,SCT250,0.00,VWS V14.01,2013-10-09 17:41:00,
2013-10-09 12:46:00,71.7,52.6,29.98,SSE,153,11.0,14.0,51,0.00,,SCT250,0.00,VWS V14.01,2013-10-09 17:46:00,
2013-10-09 12:51:00,72.0,52.4,29.98,South,186,19.0,19.0,50,0.00,,SCT250,0.00,VWS V14.01,2013-10-09 17:51:00,
2013-10-09 12:56:00,72.1,53.0,29.98,South,184,11.0,14.0,51,0.00,,SCT250,0.00,VWS V14.01,2013-10-09 17:56:00,
2013-10-09 13:01:00,72.8,53.1,29.98,SSE,152,9.0,10.0,50,0.00,,SCT250,0.00,VWS V14.01,2013-10-09 18:01:00,
2013-10-09 13:06:00,73.1,52.3,29.98,South,181,16.0,19.0,48,0.00,,SCT250,0.00,VWS V14.01,2013-10-09 18:06:00,
2013-10-09 13:11:00,73.3,53.0,29.98,South,174,16.0,16.0,49,0.00,,SCT250,0.00,VWS V14.01,2013-10-09 18:11:00,
2013-10-09 13:16:00,73.5,52.6,29.97,South,190,17.0,17.0,48,0.00,,SCT250,0.00,VWS V14.01,2013-10-09 18:16:00,
2013-10-09 13:21:00,73.4,52.0,29.97,South,185,7.0,16.0,47,0.00,,SCT250,0.00,VWS V14.01,2013-10-09 18:21:00,
2013-10-09 13:26:00,73.9,51.8,29.97,South,181,14.0,16.0,46,0.00,,SCT250,0.00,VWS V14.01,2013-10-09 18:26:00,
2013-10-09 13:31:00,73.9,52.4,29.97,SSW,209,12.0,18.0,47,0.00,,SCT250,0.00,VWS V14.01,2013-10-09 18:31:00,
2013-10-09 13:36:00,74.0,51.9,29.97,South,180,6.0,13.0,46,0.00,,SCT250,0.00,VWS V14.01,2013-10-09 18:36:00,
2013-10-09 13:42:00,74.3,52.2,29.97,SSW,195,10.0,16.0,46,0.00,,SCT250,0.00,VWS V14.01,2013-10-09 18:42:00,
2013-10-09 13:47:00,74.0,51.9,29.97,South,179,14.0,21.0,46,0.00,,SCT250,0.00,VWS V14.01,2013-10-09 18:47:00,
2013-10-09 13:52:00,74.3,53.4,29.97,South,179,10.0,17.0,48,0.00,,SCT250,0.00,VWS V14.01,2013-10-09 18:52:00,
2013-10-09 13:57:00,74.5,53.0,29.96,South,180,15.0,15.0,47,0.00,,SCT250,0.00,VWS V14.01,2013-10-09 18:57:00,
2013-10-09 14:02:00,74.9,53.3,29.96,South,187,20.0,20.0,47,0.00,,SCT250,0.00,VWS V14.01,2013-10-09 19:02:00,
2013-10-09 14:07:00,75.0,52.2,29.96,SSE,167,10.0,15.0,45,0.00,,SCT250,0.00,VWS V14.01,2013-10-09 19:07:00,
2013-10-09 14:12:00,75.3,52.5,29.96,South,174,11.0,18.0,45,0.00,,SCT250,0.00,VWS V14.01,2013-10-09 19:12:00,
2013-10-09 14:17:00,75.2,52.4,29.95,SSW,193,12.0,18.0,45,0.00,,SCT250,0.00,VWS V14.01,2013-10-09 19:17:00,
2013-10-09 14:22:00,75.3,52.5,29.95,SSE,153,8.0,15.0,45,0.00,,SCT250,0.00,VWS V14.01,2013-10-09 19:22:00,
2013-10-09 14:27:00,75.5,52.7,29.95,SSE,160,9.0,13.0,45,0.00,,SCT250,0.00,VWS V14.01,2013-10-09 19:27:00,
2013-10-09 14:32:00,75.5,53.3,29.95,ESE,116,11.0,14.0,46,0.00,,SCT250,0.00,VWS V14.01,2013-10-09 19:32:00,
2013-10-09 14:37:00,75.5,52.7,29.95,SSE,149,12.0,19.0,45,0.00,,SCT250,0.00,VWS V14.01,2013-10-09 19:37:00,
2013-10-09 14:42:00,75.3,53.1,29.94,South,183,15.0,15.0,46,0.00,,FEW250,0.00,VWS V14.01,2013-10-09 19:42:00,
2013-10-09 14:47:00,75.3,53.1,29.94,South,175,10.0,15.0,46,0.00,,FEW250,0.00,VWS V14.01,2013-10-09 19:47:00,
2013-10-09 14:52:00,75.5,52.1,29.94,SSW,196,9.0,20.0,44,0.00,,FEW250,0.00,VWS V14.01,2013-10-09 19:52:00,
2013-10-09 14:57:00,75.6,52.2,29.94,SSE,162,12.0,17.0,44,0.00,,FEW250,0.00,VWS V14.01,2013-10-09 19:57:00,
2013-10-09 15:02:00,75.8,52.4,29.94,SSE,168,18.0,18.0,44,0.00,,FEW250,0.00,VWS V14.01,2013-10-09 20:02:00,
2013-10-09 15:07:00,75.8,51.7,29.94,SSE,149,13.0,20.0,43,0.00,,FEW250,0.00,VWS V14.01,2013-10-09 20:07:00,
2013-10-09 15:12:00,75.7,52.3,29.93,South,177,11.0,14.0,44,0.00,,FEW250,0.00,VWS V14.01,2013-10-09 20:12:00,
2013-10-09 15:17:00,75.9,51.8,29.93,SSE,163,12.0,17.0,43,0.00,,FEW250,0.00,VWS V14.01,2013-10-09 20:17:00,
2013-10-09 15:22:00,75.9,51.8,29.93,SSE,156,9.0,18.0,43,0.00,,FEW250,0.00,VWS V14.01,2013-10-09 20:22:00,
2013-10-09 15:27:00,76.0,51.9,29.93,SSE,166,10.0,15.0,43,0.00,,FEW250,0.00,VWS V14.01,2013-10-09 20:27:00,
2013-10-09 15:32:00,76.0,51.9,29.93,South,186,11.0,16.0,43,0.00,,FEW250,0.00,VWS V14.01,2013-10-09 20:32:00,
2013-10-09 15:37:00,76.2,52.7,29.93,SSE,148,17.0,17.0,44,0.00,,FEW250,0.00,VWS V14.01,2013-10-09 20:37:00,
2013-10-09 15:42:00,76.2,52.1,29.93,South,185,10.0,13.0,43,0.00,,FEW250,0.00,VWS V14.01,2013-10-09 20:42:00,
2013-10-09 15:47:00,76.2,52.1,29.93,South,169,6.0,15.0,43,0.00,,FEW250,0.00,VWS V14.01,2013-10-09 20:47:00,
2013-10-09 15:52:00,76.0,52.5,29.93,SSE,168,9.0,12.0,44,0.00,,FEW250,0.00,VWS V14.01,2013-10-09 20:52:00,
2013-10-09 15:57:00,76.2,52.7,29.93,SSE,162,6.0,14.0,44,0.00,,FEW250,0.00,VWS V14.01,2013-10-09 20:57:00,
2013-10-09 16:03:00,75.9,53.1,29.93,SSE,154,11.0,11.0,45,0.00,,FEW250,0.00,VWS V14.01,2013-10-09 21:03:00,
2013-10-09 16:08:00,75.7,52.3,29.93,SSE,149,13.0,21.0,44,0.00,,FEW250,0.00,VWS V14.01,2013-10-09 21:08:00,
2013-10-09 16:13:00,75.8,52.4,29.93,South,185,12.0,19.0,44,0.00,,FEW250,0.00,VWS V14.01,2013-10-09 21:13:00,
2013-10-09 16:18:00,75.7,52.9,29.93,SSE,162,11.0,16.0,45,0.00,,FEW250,0.00,VWS V14.01,2013-10-09 21:18:00,
2013-10-09 16:23:00,75.6,52.8,29.93,South,172,7.0,13.0,45,0.00,,FEW250,0.00,VWS V14.01,2013-10-09 21:23:00,
2013-10-09 16:28:00,75.6,52.8,29.93,SSE,164,9.0,13.0,45,0.00,,FEW250,0.00,VWS V14.01,2013-10-09 21:28:00,
2013-10-09 16:33:00,75.7,52.9,29.93,South,170,11.0,14.0,45,0.00,,FEW250,0.00,VWS V14.01,2013-10-09 21:33:00,
2013-10-09 16:38:00,75.5,52.7,29.93,South,189,15.0,15.0,45,0.00,,FEW250,0.00,VWS V14.01,2013-10-09 21:38:00,
2013-10-09 16:43:00,75.3,51.9,29.93,SSE,158,8.0,14.0,44,0.00,,FEW250,0.00,VWS V14.01,2013-10-09 21:43:00,
2013-10-09 16:48:00,75.3,52.5,29.93,SSE,157,14.0,18.0,45,0.00,,FEW250,0.00,VWS V14.01,2013-10-09 21:48:00,
2013-10-09 16:53:00,75.2,51.8,29.93,SSE,167,13.0,19.0,44,0.00,,FEW250,0.00,VWS V14.01,2013-10-09 21:53:00,
2013-10-09 16:58:00,75.1,52.3,29.93,SSE,158,6.0,11.0,45,0.00,,FEW250,0.00,VWS V14.01,2013-10-09 21:58:00,
2013-10-09 17:03:00,75.0,52.2,29.93,SSE,162,7.0,13.0,45,0.00,,FEW250,0.00,VWS V14.01,2013-10-09 22:03:00,
2013-10-09 17:08:00,75.1,52.3,29.93,SSE,156,5.0,12.0,45,0.00,,FEW250,0.00,VWS V14.01,2013-10-09 22:08:00,
2013-10-09 17:13:00,75.2,52.4,29.92,South,175,11.0,13.0,45,0.00,,FEW250,0.00,VWS V14.01,2013-10-09 22:13:00,
2013-10-09 17:18:00,75.1,52.3,29.93,SSE,156,8.0,12.0,45,0.00,,FEW250,0.00,VWS V14.01,2013-10-09 22:18:00,
2013-10-09 17:23:00,74.8,52.1,29.92,SSE,167,4.0,14.0,45,0.00,,FEW250,0.00,VWS V14.01,2013-10-09 22:23:00,
2013-10-09 17:28:00,74.6,51.9,29.92,South,183,9.0,17.0,45,0.00,,FEW250,0.00,VWS V14.01,2013-10-09 22:28:00,
2013-10-09 17:33:00,74.4,52.3,29.92,SSE,164,7.0,12.0,46,0.00,,FEW250,0.00,VWS V14.01,2013-10-09 22:33:00,
2013-10-09 17:38:00,74.3,52.2,29.92,SSE,155,7.0,8.0,46,0.00,,FEW250,0.00,VWS V14.01,2013-10-09 22:38:00,
2013-10-09 17:43:00,74.1,52.6,29.92,SSE,162,9.0,12.0,47,0.00,,FEW250,0.00,VWS V14.01,2013-10-09 22:43:00,
2013-10-09 17:48:00,73.8,51.8,29.92,South,169,10.0,11.0,46,0.00,,FEW250,0.00,VWS V14.01,2013-10-09 22:48:00,
2013-10-09 17:53:00,73.7,51.7,29.92,SSE,151,5.0,9.0,46,0.00,,FEW250,0.00,VWS V14.01,2013-10-09 22:53:00,
2013-10-09 17:58:00,73.4,51.4,29.92,SSE,168,13.0,14.0,46,0.00,,FEW250,0.00,VWS V14.01,2013-10-09 22:58:00,
2013-10-09 18:03:00,73.3,50.7,29.92,South,187,6.0,11.0,45,0.00,,FEW250,0.00,VWS V14.01,2013-10-09 23:03:00,
2013-10-09 18:08:00,73.1,51.1,29.92,South,188,7.0,13.0,46,0.00,,FEW250,0.00,VWS V14.01,2013-10-09 23:08:00,
2013-10-09 18:13:00,72.8,50.8,29.92,SSE,154,9.0,12.0,46,0.00,,FEW250,0.00,VWS V14.01,2013-10-09 23:13:00,
2013-10-09 18:18:00,72.5,51.2,29.92,South,172,8.0,11.0,47,0.00,,FEW250,0.00,VWS V14.01,2013-10-09 23:18:00,
2013-10-09 18:23:00,72.0,50.7,29.92,South,174,6.0,8.0,47,0.00,,FEW250,0.00,VWS V14.01,2013-10-09 23:23:00,
2013-10-09 18:28:00,71.4,51.3,29.92,South,180,6.0,7.0,49,0.00,,FEW250,0.00,VWS V14.01,2013-10-09 23:28:00,
2013-10-09 18:33:00,70.9,50.8,29.92,SE,144,5.0,5.0,49,0.00,,FEW250,0.00,VWS V14.01,2013-10-09 23:33:00,
2013-10-09 18:38:00,70.5,51.0,29.92,SSE,162,4.0,8.0,50,0.00,,FEW250,0.00,VWS V14.01,2013-10-09 23:38:00,
2013-10-09 18:43:00,70.3,50.8,29.92,SSE,168,7.0,10.0,50,0.00,,FEW250,0.00,VWS V14.01,2013-10-09 23:43:00,
2013-10-09 18:48:00,70.1,50.6,29.92,SSE,158,6.0,8.0,50,0.00,,FEW250,0.00,VWS V14.01,2013-10-09 23:48:00,
2013-10-09 18:53:00,69.6,50.7,29.92,South,174,4.0,6.0,51,0.00,,FEW250,0.00,VWS V14.01,2013-10-09 23:53:00,
2013-10-09 18:58:00,69.3,50.4,29.92,SSE,164,6.0,8.0,51,0.00,,FEW250,0.00,VWS V14.01,2013-10-09 23:58:00,
2013-10-09 19:03:00,68.9,50.6,29.93,South,185,7.0,9.0,52,0.00,,FEW250,0.00,VWS V14.01,2013-10-10 00:03:00,
2013-10-09 19:08:00,68.6,50.3,29.93,SSE,168,4.0,7.0,52,0.00,,FEW250,0.00,VWS V14.01,2013-10-10 00:08:00,
2013-10-09 19:13:00,68.3,50.5,29.93,SSE,162,4.0,6.0,53,0.00,,FEW250,0.00,VWS V14.01,2013-10-10 00:13:00,
2013-10-09 19:18:00,67.9,50.7,29.93,South,174,4.0,6.0,54,0.00,,FEW250,0.00,VWS V14.01,2013-10-10 00:18:00,
2013-10-09 19:23:00,67.5,50.3,29.93,South,181,5.0,6.0,54,0.00,,FEW250,0.00,VWS V14.01,2013-10-10 00:23:00,
2013-10-09 19:28:00,67.1,50.4,29.93,SSE,152,6.0,6.0,55,0.00,,FEW250,0.00,VWS V14.01,2013-10-10 00:28:00,
2013-10-09 19:33:00,67.1,49.9,29.94,SE,129,4.0,9.0,54,0.00,,FEW250,0.00,VWS V14.01,2013-10-10 00:33:00,
2013-10-09 19:38:00,66.9,50.2,29.94,SSE,164,4.0,9.0,55,0.00,,FEW250,0.00,VWS V14.01,2013-10-10 00:38:00,
2013-10-09 19:43:00,66.7,50.0,29.94,SSE,166,7.0,9.0,55,0.00,,FEW250,0.00,VWS V14.01,2013-10-10 00:43:00,
2013-10-09 19:48:00,66.6,50.0,29.94,South,184,7.0,13.0,55,0.00,,FEW250,0.00,VWS V14.01,2013-10-10 00:48:00,
2013-10-09 19:53:00,66.3,50.2,29.94,South,183,6.0,9.0,56,0.00,,FEW250,0.00,VWS V14.01,2013-10-10 00:53:00,
2013-10-09 19:59:00,66.0,50.3,29.94,South,172,5.0,10.0,57,0.00,,FEW250,0.00,VWS V14.01,2013-10-10 00:59:00,
2013-10-09 20:04:00,65.8,50.2,29.94,South,172,5.0,9.0,57,0.00,,FEW250,0.00,VWS V14.01,2013-10-10 01:04:00,
2013-10-09 20:09:00,65.6,50.0,29.94,SSE,167,4.0,8.0,57,0.00,,FEW250,0.00,VWS V14.01,2013-10-10 01:09:00,
2013-10-09 20:14:00,65.4,50.2,29.94,SSW,195,4.0,8.0,58,0.00,,FEW250,0.00,VWS V14.01,2013-10-10 01:14:00,
2013-10-09 20:19:00,65.4,50.7,29.95,SE,129,6.0,8.0,59,0.00,,FEW250,0.00,VWS V14.01,2013-10-10 01:19:00,
2013-10-09 20:24:00,65.2,50.5,29.95,South,176,6.0,8.0,59,0.00,,FEW250,0.00,VWS V14.01,2013-10-10 01:24:00,
2013-10-09 20:29:00,64.9,50.2,29.95,SSE,165,6.0,6.0,59,0.00,,FEW250,0.00,VWS V14.01,2013-10-10 01:29:00,
2013-10-09 20:34:00,64.6,50.4,29.95,South,179,3.0,8.0,60,0.00,,FEW250,0.00,VWS V14.01,2013-10-10 01:34:00,
2013-10-09 20:39:00,64.4,50.7,29.95,SSE,154,6.0,6.0,61,0.00,,FEW250,0.00,VWS V14.01,2013-10-10 01:39:00,
2013-10-09 20:44:00,64.3,50.6,29.95,South,185,6.0,8.0,61,0.00,,FEW250,0.00,VWS V14.01,2013-10-10 01:44:00,
2013-10-09 20:49:00,64.1,50.4,29.95,SE,140,6.0,8.0,61,0.00,,FEW250,0.00,VWS V14.01,2013-10-10 01:49:00,
2013-10-09 20:54:00,64.0,50.7,29.95,SSE,168,3.0,6.0,62,0.00,,FEW250,0.00,VWS V14.01,2013-10-10 01:54:00,
2013-10-09 20:59:00,63.9,50.6,29.95,South,178,8.0,8.0,62,0.00,,FEW250,0.00,VWS V14.01,2013-10-10 01:59:00,
2013-10-09 21:04:00,63.8,50.5,29.95,South,172,4.0,7.0,62,0.00,,FEW250,0.00,VWS V14.01,2013-10-10 02:04:00,
2013-10-09 21:09:00,63.7,50.5,29.95,South,179,6.0,12.0,62,0.00,,FEW250,0.00,VWS V14.01,2013-10-10 02:09:00,
2013-10-09 21:14:00,63.7,50.5,29.95,South,174,6.0,10.0,62,0.00,,FEW250,0.00,VWS V14.01,2013-10-10 02:14:00,
2013-10-09 21:19:00,63.7,50.5,29.95,SSE,162,9.0,13.0,62,0.00,,FEW250,0.00,VWS V14.01,2013-10-10 02:19:00,
2013-10-09 21:24:00,63.7,50.5,29.95,South,178,8.0,13.0,62,0.00,,FEW250,0.00,VWS V14.01,2013-10-10 02:24:00,
2013-10-09 21:29:00,63.6,50.4,29.95,South,171,8.0,10.0,62,0.00,,FEW250,0.00,VWS V14.01,2013-10-10 02:29:00,
2013-10-09 21:34:00,63.2,50.4,29.95,SSE,164,4.0,8.0,63,0.00,,FEW250,0.00,VWS V14.01,2013-10-10 02:34:00,
2013-10-09 21:39:00,62.9,50.5,29.95,SSE,159,6.0,11.0,64,0.00,,FEW250,0.00,VWS V14.01,2013-10-10 02:39:00,
2013-10-09 21:44:00,62.7,50.4,29.95,SSE,162,7.0,12.0,64,0.00,,CLR,0.00,VWS V14.01,2013-10-10 02:44:00,
2013-10-09 21:49:00,62.5,50.6,29.96,South,177,7.0,8.0,65,0.00,,CLR,0.00,VWS V14.01,2013-10-10 02:49:00,
2013-10-09 21:54:00,62.0,50.5,29.96,South,176,6.0,9.0,66,0.00,,CLR,0.00,VWS V14.01,2013-10-10 02:54:00,
2013-10-09 21:59:00,61.7,50.2,29.96,South,177,6.0,9.0,66,0.00,,CLR,0.00,VWS V14.01,2013-10-10 02:59:00,
2013-10-09 22:04:00,61.7,50.2,29.96,SE,133,7.0,8.0,66,0.00,,CLR,0.00,VWS V14.01,2013-10-10 03:04:00,
2013-10-09 22:09:00,61.7,50.2,29.96,South,185,8.0,8.0,66,0.00,,CLR,0.00,VWS V14.01,2013-10-10 03:09:00,
2013-10-09 22:15:00,61.7,50.2,29.96,South,171,5.0,8.0,66,0.00,,CLR,0.00,VWS V14.01,2013-10-10 03:15:00,
2013-10-09 22:20:00,61.5,50.0,29.96,South,170,6.0,7.0,66,0.00,,CLR,0.00,VWS V14.01,2013-10-10 03:20:00,
2013-10-09 22:25:00,61.4,50.0,29.97,South,184,6.0,9.0,66,0.00,,CLR,0.00,VWS V14.01,2013-10-10 03:25:00,
2013-10-09 22:30:00,61.4,50.0,29.96,SSE,168,7.0,9.0,66,0.00,,CLR,0.00,VWS V14.01,2013-10-10 03:30:00,
2013-10-09 22:35:00,61.4,50.0,29.97,South,170,6.0,8.0,66,0.00,,CLR,0.00,VWS V14.01,2013-10-10 03:35:00,
2013-10-09 22:40:00,61.3,49.9,29.97,SSE,164,7.0,8.0,66,0.00,,CLR,0.00,VWS V14.01,2013-10-10 03:40:00,
2013-10-09 22:45:00,61.2,49.8,29.97,SSE,159,11.0,11.0,66,0.00,,CLR,0.00,VWS V14.01,2013-10-10 03:45:00,
2013-10-09 22:50:00,61.3,49.9,29.97,South,183,8.0,8.0,66,0.00,,CLR,0.00,VWS V14.01,2013-10-10 03:50:00,
2013-10-09 22:55:00,61.2,49.8,29.97,SSE,157,6.0,9.0,66,0.00,,CLR,0.00,VWS V14.01,2013-10-10 03:55:00,
2013-10-09 23:00:00,61.1,49.7,29.97,SSW,193,8.0,9.0,66,0.00,,CLR,0.00,VWS V14.01,2013-10-10 04:00:00,
2013-10-09 23:01:00,61.1,49.7,29.97,SSE,164,8.0,10.0,66,0.00,,CLR,0.00,VWS V14.01,2013-10-10 04:01:00,
2013-10-09 23:06:00,61.1,49.7,29.97,SE,143,8.0,11.0,66,0.00,,CLR,0.00,VWS V14.01,2013-10-10 04:06:00,
2013-10-09 23:11:00,60.9,49.9,29.97,South,181,6.0,9.0,67,0.00,,CLR,0.00,VWS V14.01,2013-10-10 04:11:00,
2013-10-09 23:16:00,60.6,49.6,29.97,SSE,168,5.0,8.0,67,0.00,,CLR,0.00,VWS V14.01,2013-10-10 04:16:00,
2013-10-09 23:21:00,60.3,49.7,29.97,South,174,3.0,8.0,68,0.00,,CLR,0.00,VWS V14.01,2013-10-10 04:21:00,
2013-10-09 23:26:00,60.1,49.5,29.97,South,187,4.0,7.0,68,0.00,,CLR,0.00,VWS V14.01,2013-10-10 04:26:00,
2013-10-09 23:31:00,59.9,49.3,29.97,SSE,166,6.0,11.0,68,0.00,,CLR,0.00,VWS V14.01,2013-10-10 04:31:00,
2013-10-09 23:36:00,59.9,49.3,29.97,South,182,6.0,10.0,68,0.00,,CLR,0.00,VWS V14.01,2013-10-10 04:36:00,
2013-10-09 23:41:00,59.8,49.6,29.97,SSE,159,5.0,9.0,69,0.00,,CLR,0.00,VWS V14.01,2013-10-10 04:41:00,
2013-10-09 23:46:00,59.8,49.6,29.97,South,172,8.0,8.0,69,0.00,,CLR,0.00,VWS V14.01,2013-10-10 04:46:00,
2013-10-09 23:51:00,59.6,49.4,29.97,South,171,6.0,8.0,69,0.00,,CLR,0.00,VWS V14.01,2013-10-10 04:51:00,
2013-10-09 23:56:00,59.5,49.3,29.97,South,179,7.0,8.0,69,0.00,,CLR,0.00,VWS V14.01,2013-10-10 04:56:00,